SCP
0 0 0 0 0 0 0 0 0 0 0 0 0 0 0 0 0 0 0 0 0 0 0 0 0 0 0 0 0 0 0 0 0 0 0 0 0 0 0 0 1 1 0 0 0 0 0 0 0
0 0 0 0 0 0 0 0 0 0 0 0 0 0 0 0 0 0 0 0 0 0 0 0 0 0 0 0 0 0 0 0 0 0 0 0 0 0 0 0 0 1 0 0 0 0 0 1 0
0 0 0 0 0 0 0 0 0 0 0 0 0 0 0 0 0 0 0 0 0 0 0 0 0 0 0 0 0 0 0 0 0 0 0 0 0 0 0 0 0 0 0 0 0 0 1 0 0
0 0 0 0 0 0 0 0 0 0 0 0 0 0 0 0 0 0 0 0 0 0 0 0 0 0 0 0 0 0 0 0 0 0 0 0 0 0 0 0 0 0 1 0 0 0 1 1 0
0 0 0 0 0 0 0 0 0 0 0 0 0 0 0 0 0 0 0 0 0 0 0 0 0 0 0 0 0 0 0 0 0 0 0 0 0 0 0 1 0 0 0 1 0 0 1 0 1
0 0 0 0 0 0 0 0 0 0 0 0 0 0 0 0 0 0 0 0 0 0 0 0 0 0 0 0 0 0 0 0 0 0 0 0 0 0 0 0 0 0 0 0 0 0 0 0 0
0 0 0 0 0 0 0 0 0 0 0 0 0 0 0 0 0 0 0 0 0 0 0 0 -0 -0 -0 0 0 0 0 0 0 0 0 0 0 0 0 0 0 0 0 0 0 0 0 0 0
0 0 0 0 0 0 0 0 0 0 0 0 0 0 0 0 0 0 0 0 0 0 0 0 0 0 0 0 0 0 0 0 0 0 0 0 0 0 0 0 0 0 0 0 0 0 0 0 0
0 0 0 0 0 0 0 0 0 0 0 0 0 0 0 0 0 0 0 0 0 0 0 0 0 0 0 0 0 0 0 0 0 0 0 0 0 0 0 0 0 0 0 0 0 0 0 0 0
0 0 0 0 0 0 0 0 0 0 0 0 0 0 0 0 0 0 0 0 0 0 0 0 0 0 0 0 0 0 0 0 0 0 0 0 0 0 0 0 0 0 0 0 0 0 0 0 0
0 0 0 0 0 0 0 0 0 0 0 0 0 0 0 0 0 0 0 0 0 0 0 0 0 0 0 0 0 0 0 0 0 0 0 0 0 0 0 0 0 0 0 0 0 0 0 0 0
0 0 0 0 0 0 0 0 0 0 0 0 0 0 0 0 0 0 0 0 0 0 0 0 0 0 0 0 0 0 0 0 0 0 0 0 0 0 0 0 0 0 0 0 0 0 0 0 0
0 0 0 0 0 0 0 0 0 0 0 0 0 0 0 0 0 0 0 0 0 0 0 0 0 0 0 -0 -0 -0 0 0 0 0 0 0 0 0 0 0 0 0 0 0 0 0 0 0 0
0 0 0 0 0 0 0 0 0 0 0 0 0 0 0 0 0 0 0 0 0 0 0 0 0 0 0 0 0 -0 0 0 0 0 0 0 0 0 0 0 0 0 0 0 0 0 0 1 1
0 0 0 0 0 0 0 0 0 0 0 0 0 0 0 0 0 0 0 0 0 0 0 0 0 0 0 0 0 0 -0 0 0 0 0 0 0 0 0 0 0 0 0 0 0 0 0 1 1
0 0 0 0 0 0 0 0 0 0 0 0 0 0 0 0 0 0 0 0 0 0 0 0 0 0 0 0 0 0 0 0 0 0 0 0 0 0 0 0 0 0 0 0 0 0 1 1 1
0 0 0 0 0 0 0 0 0 0 0 0 0 0 0 0 0 0 0 0 0 0 0 0 0 0 0 0 0 0 0 0 0 0 0 0 0 0 0 0 0 0 0 0 0 0 0 0 0
0 0 0 0 0 0 0 0 0 0 0 0 0 0 0 0 0 0 0 0 0 0 0 0 0 0 0 0 0 0 0 0 0 0 0 0 0 0 0 0 0 0 0 0 0 0 0 0 0
0 0 0 0 0 0 0 0 0 0 0 0 0 0 0 0 0 0 0 0 0 0 0 0 0 0 0 0 0 0 0 0 0 0 0 0 0 0 0 0 0 0 0 0 0 0 0 0 0
0 0 0 0 0 0 0 0 0 0 0 0 0 0 0 0 0 0 0 0 0 0 0 0 0 0 0 0 0 0 0 0 0 0 0 0 0 0 0 0 0 0 0 0 0 0 0 0 0
0 0 0 0 0 0 0 0 0 0 0 0 0 0 0 0 0 0 0 0 0 0 0 0 0 0 0 0 0 0 0 0 0 0 0 0 0 0 0 0 0 0 0 0 0 0 0 0 0
0 0 0 0 0 0 0 0 0 0 0 0 0 0 0 0 0 0 0 0 0 0 0 0 0 0 0 0 0 0 0 0 0 0 0 0 0 0 0 0 0 0 0 0 0 0 0 0 0
0 0 0 0 0 0 0 0 0 0 0 0 0 0 0 0 0 0 0 0 0 0 0 0 0 0 0 0 0 0 0 0 0 0 0 0 0 0 0 0 0 0 0 0 0 0 0 0 0
0 0 0 0 0 0 0 0 0 0 0 0 0 0 0 0 0 0 0 0 0 0 0 0 0 0 0 0 0 0 0 0 0 0 0 0 0 0 0 0 0 0 0 0 0 0 0 0 0
0 0 0 0 0 0 0 0 0 0 0 0 0 0 0 0 0 0 0 0 0 0 0 0 0 0 0 0 0 0 0 0 0 0 0 0 0 0 0 0 0 0 0 0 0 0 0 0 0
0 0 0 0 0 0 0 0 0 0 0 0 0 0 0 0 0 0 0 0 0 0 0 0 0 0 0 0 0 0 0 0 0 0 0 0 0 0 0 0 0 0 0 0 0 0 0 0 0
0 0 0 0 0 0 0 0 0 0 0 0 0 0 0 0 0 0 0 0 0 0 0 0 0 0 0 0 0 0 0 0 0 0 0 0 0 0 -0 -0 0 0 0 0 0 0 0 0 0
0 0 0 0 0 0 0 0 0 0 0 0 0 0 0 0 0 0 0 0 0 0 0 0 0 0 0 0 0 0 0 0 0 0 0 0 0 -0 0 0 0 0 0 0 0 0 0 0 0
0 0 0 0 0 0 0 0 0 0 0 0 -0 0 0 0 0 0 0 0 0 0 0 0 0 0 0 0 0 0 0 -0 0 0 0 0 0 0 0 0 0 0 0 0 0 0 0 0 0
0 0 0 0 0 0 0 0 0 0 0 0 0 0 0 0 0 0 0 0 0 0 0 0 0 0 0 0 0 0 0 -0 -0 -0 0 0 0 0 0 0 0 0 0 0 0 0 0 0 0
Wind_Speed_500mb
12 19 18 11 7 9 7 9 2 2 3 5 8 5 14 12 6 8 21 10 6 8 7 10 15 18 17 12 11 14 14 15 15 12 14 14 15 17 21 32 37 38 35 36 34 37 37 37 37
15 22 15 5 8 4 10 7 8 5 6 16 18 11 9 6 11 20 19 9 11 10 11 13 15 19 20 19 15 11 18 17 17 17 15 18 18 18 21 29 37 42 42 41 39 41 41 39 38
18 24 9 8 6 10 10 8 9 5 7 6 8 10 7 12 17 20 17 13 12 14 16 20 21 23 23 23 22 20 16 24 20 20 22 21 23 21 23 28 36 41 45 45 42 44 45 43 42
14 10 8 8 11 11 7 5 7 7 4 7 12 11 10 11 18 20 19 15 17 21 24 27 31 32 33 30 27 25 24 22 25 25 21 26 27 28 28 32 37 39 44 47 49 47 47 45 44
15 6 6 2 10 7 3 6 7 4 1 5 4 8 10 15 20 20 17 17 21 24 28 34 36 37 37 36 32 29 29 28 29 28 28 29 33 36 35 38 39 43 45 48 50 52 49 50 47
7 5 6 7 9 3 3 4 7 7 3 2 5 15 9 20 23 18 17 16 21 26 30 36 41 45 48 49 50 46 38 36 32 33 31 31 34 35 40 43 45 46 50 50 50 51 53 52 47
12 8 7 6 7 3 9 8 5 10 7 8 11 11 8 26 24 23 22 23 26 31 36 42 50 57 60 59 55 50 47 45 42 38 37 34 33 37 41 47 52 52 52 56 54 53 54 53 49
8 7 7 9 9 9 8 7 5 9 11 10 13 11 10 30 28 26 26 27 30 39 48 52 52 55 57 53 54 49 46 46 45 45 42 39 43 44 51 53 55 59 58 59 63 60 58 57 54
8 7 5 8 12 5 9 8 10 6 9 13 16 14 13 15 27 29 29 32 35 39 45 53 55 48 42 38 39 46 46 43 46 47 48 47 43 44 47 55 58 64 64 63 63 69 68 64 61
7 7 16 5 5 7 9 7 8 5 14 15 25 26 26 25 27 33 35 37 41 45 44 44 44 45 42 40 36 37 44 47 43 46 50 50 51 45 46 51 52 58 66 71 69 68 70 67 66
7 10 6 6 7 8 5 6 10 7 12 32 36 40 33 34 37 39 42 44 43 41 42 43 43 44 45 41 41 40 39 45 49 45 47 52 52 54 49 49 55 53 62 64 71 72 70 75 76
4 12 8 5 10 7 6 6 10 33 24 15 18 22 30 37 39 38 37 39 38 41 42 41 42 46 52 55 51 47 43 42 45 52 50 49 56 55 55 53 52 53 48 57 63 70 78 77 82
6 4 8 10 12 16 13 21 19 37 39 34 31 31 33 33 35 36 37 38 37 40 44 46 45 48 53 59 62 61 54 48 45 47 52 54 53 57 57 56 54 54 54 53 46 68 72 79 82
4 10 18 18 26 17 11 8 5 10 8 32 41 40 38 37 36 36 38 35 37 41 47 49 50 52 56 61 64 66 62 58 53 47 48 55 57 57 58 58 57 55 52 59 49 56 71 79 83
4 11 12 15 13 10 8 14 21 40 23 24 35 35 33 32 34 36 33 35 38 45 50 53 54 55 58 61 64 68 67 59 59 55 49 54 58 59 59 60 60 52 49 60 57 53 59 73 82
3 3 8 2 11 3 5 16 8 10 24 34 36 38 40 38 37 38 37 39 43 46 51 56 57 59 62 63 65 65 64 65 60 58 56 52 57 60 61 63 62 55 48 49 55 52 61 68 89
4 7 8 12 9 5 9 14 13 11 23 38 43 48 50 43 43 45 44 46 49 48 52 56 60 64 67 67 64 62 60 61 63 60 59 55 55 59 61 64 64 57 53 47 50 40 54 58 89
10 8 8 10 2 3 12 32 39 42 38 53 59 55 52 47 48 48 48 48 49 52 57 60 62 63 67 65 59 59 58 57 59 61 60 55 53 55 59 63 65 60 56 52 55 44 41 37 66
2 6 10 4 4 4 18 24 42 36 34 37 50 53 56 51 45 47 47 47 49 53 58 62 65 65 60 54 52 53 54 54 56 57 59 51 47 49 56 61 64 63 57 52 48 51 58 58 40
6 7 10 7 5 4 13 31 44 17 11 10 21 35 42 46 46 48 45 46 51 56 58 62 64 59 51 48 44 47 51 54 55 53 52 47 34 34 51 55 60 62 57 52 43 44 61 63 70
7 8 5 9 11 3 15 16 11 6 7 10 12 14 23 31 37 39 41 45 51 53 57 60 55 52 51 48 49 47 47 49 51 53 51 47 39 37 48 47 51 58 58 57 48 43 50 70 68
5 4 6 1 8 6 9 11 14 7 13 9 14 11 19 29 32 31 37 48 52 51 48 51 52 51 50 46 46 46 48 50 46 51 50 45 32 37 40 36 42 50 59 58 60 47 62 45 73
9 3 5 6 6 8 2 4 16 9 12 8 12 24 28 27 27 33 43 49 44 44 49 51 52 51 46 44 44 47 49 48 48 47 44 33 34 36 38 42 37 41 54 58 59 59 51 46 34
10 6 7 8 5 3 4 6 12 7 10 6 2 19 28 25 28 38 42 38 43 46 48 50 50 45 41 41 43 44 46 47 45 42 40 32 40 40 32 42 43 35 50 54 57 49 43 38 38
9 6 6 8 5 9 3 1 19 12 10 9 9 17 19 23 34 38 35 38 43 45 45 45 44 43 40 41 42 41 43 43 43 40 37 36 35 41 30 32 37 33 41 50 56 60 51 42 36
7 8 8 12 5 8 1 12 11 12 8 10 13 18 25 31 33 32 34 38 40 43 42 41 41 42 39 39 39 38 38 40 37 36 35 30 29 32 46 34 36 32 51 46 44 64 72 57 46
3 5 4 12 3 5 4 14 17 7 9 9 21 21 31 31 31 31 33 34 37 39 36 37 38 38 37 37 37 33 33 33 31 31 27 22 25 34 39 41 41 39 47 46 47 48 61 58 63
4 3 4 5 1 7 9 11 10 9 7 9 11 26 29 28 25 29 30 33 33 33 33 32 34 35 36 33 31 28 26 25 22 20 18 21 25 30 32 36 44 33 35 36 32 35 36 60 57
4 3 4 5 6 8 4 13 14 14 12 12 17 33 30 27 25 27 27 27 29 30 29 29 30 29 27 27 24 22 19 15 14 14 15 18 18 20 21 23 23 16 26 30 33 40 38 45 62
3 8 6 8 8 1 6 14 5 9 9 8 37 40 25 23 24 26 25 25 25 26 25 25 25 24 25 24 20 17 13 10 10 9 11 13 14 13 20 17 14 18 19 20 29 42 39 38 40
Wind_Direction_500mb
175 165 155 144 69 63 266 260 257 123 94 75 60 114 123 60 66 163 99 139 213 266 315 346 357 357 2 350 327 294 314 266 233 224 244 255 245 242 218 206 212 217 219 218 216 213 211 209 208
170 160 155 125 99 112 258 248 210 184 125 116 97 96 39 80 102 145 163 169 212 260 294 320 339 345 339 335 327 307 282 297 277 243 239 242 246 242 229 214 213 220 221 224 220 220 214 211 209
160 167 160 107 126 194 218 211 167 115 121 150 110 85 107 120 139 151 168 208 249 274 298 315 324 326 326 323 316 310 289 277 279 269 248 245 242 240 236 225 217 220 221 223 221 222 215 212 204
155 153 77 103 218 250 218 189 165 137 116 92 129 80 101 156 160 176 186 214 254 283 302 314 322 326 323 313 302 298 296 284 280 268 269 249 247 234 232 231 226 222 220 218 222 219 217 214 209
157 126 72 144 248 264 264 175 134 127 250 91 130 174 151 161 171 185 202 228 261 278 296 307 314 318 319 316 311 298 289 289 281 277 266 258 249 243 233 229 230 225 221 220 222 220 219 215 213
105 92 76 221 244 247 251 185 167 163 204 159 106 140 201 195 188 200 222 247 270 287 298 305 311 312 310 308 303 298 294 285 280 279 280 261 254 255 237 233 230 232 227 224 222 221 219 215 216
121 97 211 217 235 228 217 175 188 175 175 235 155 146 218 201 204 220 242 262 279 293 300 303 305 307 306 304 299 296 290 279 277 273 274 277 262 253 250 239 232 232 232 229 224 222 222 221 219
125 93 176 243 202 237 173 172 183 173 230 172 183 210 230 219 211 226 246 261 275 288 295 297 297 295 295 291 291 291 287 280 272 269 268 266 266 260 253 249 241 236 234 231 228 225 227 226 230
135 72 222 246 168 193 172 169 192 227 221 204 213 225 243 203 220 234 253 269 280 284 287 292 298 298 294 289 284 285 287 284 275 268 266 265 260 260 257 253 249 238 235 236 233 229 226 231 234
110 143 217 215 178 183 176 199 195 212 215 228 231 231 230 228 234 250 262 275 285 291 295 295 296 298 299 299 294 284 281 282 281 272 266 262 262 262 259 256 252 247 241 233 236 234 230 228 230
164 206 221 232 194 166 194 255 230 210 242 227 225 227 217 235 248 256 268 279 288 296 302 303 301 302 305 307 306 298 285 276 276 277 271 264 261 259 263 258 258 255 250 243 234 238 233 231 228
210 238 241 239 201 177 201 232 258 226 238 256 226 237 234 235 243 257 270 280 290 299 305 306 305 306 310 311 309 307 299 288 275 271 273 269 261 258 257 262 259 257 252 249 242 235 239 237 234
218 265 246 225 219 241 241 230 238 263 263 255 252 244 237 241 249 258 269 279 293 304 310 309 309 309 310 310 309 307 304 295 284 273 268 270 265 258 256 255 260 261 257 254 249 242 239 240 240
308 288 274 272 253 240 208 254 175 267 239 248 250 249 242 240 248 254 263 276 290 299 304 305 307 311 311 309 306 303 300 296 290 279 269 266 267 263 256 253 253 256 255 254 249 254 243 244 240
306 314 308 235 228 218 195 273 229 247 255 247 243 243 239 248 256 259 262 274 286 295 301 303 305 310 311 310 305 300 298 295 290 286 273 266 266 264 259 254 249 250 253 252 249 255 254 245 247
340 86 331 94 146 191 158 264 260 252 227 241 239 239 241 245 254 253 261 272 280 287 295 299 300 303 307 306 304 299 294 293 292 286 280 268 265 263 261 256 250 245 247 253 245 257 253 256 246
357 247 214 313 188 132 193 268 260 248 226 242 249 253 250 241 244 250 260 268 276 285 293 296 298 302 305 305 300 295 291 290 290 285 280 276 265 263 262 257 251 246 246 250 242 252 256 255 237
202 222 239 244 338 241 259 260 273 266 264 260 267 259 246 243 244 246 254 266 278 287 293 296 296 299 302 299 295 291 290 290 286 285 281 278 269 260 262 257 252 247 244 247 248 250 228 230 237
110 217 243 242 358 299 252 271 275 281 262 261 264 262 250 246 244 244 254 267 278 285 290 296 303 307 304 298 297 291 290 287 284 285 286 282 269 263 261 256 251 246 244 241 249 251 248 234 219
213 253 263 277 154 248 307 289 279 279 248 253 281 263 251 246 237 241 254 270 282 289 296 299 304 306 303 297 292 290 292 290 289 286 285 282 257 271 262 258 251 248 243 233 241 240 234 234 227
219 206 226 238 313 172 321 289 321 287 262 263 282 267 237 235 229 241 261 280 290 296 300 302 302 301 300 297 293 292 289 287 289 289 283 281 253 263 264 257 252 249 243 233 234 239 224 220 210
257 112 109 275 39 266 34 282 300 315 293 235 235 219 211 220 234 256 283 295 300 299 300 301 301 300 299 296 293 293 294 292 288 287 285 282 255 264 263 261 251 254 243 236 234 241 234 220 207
216 109 109 99 93 32 17 67 271 6 296 273 234 225 231 236 257 282 298 302 297 298 302 303 303 303 301 297 293 293 292 289 287 284 285 271 249 265 250 250 243 245 246 239 233 240 238 238 229
137 83 66 56 85 352 250 134 272 219 215 293 252 226 233 245 274 294 298 294 295 299 301 302 302 302 301 297 293 291 290 290 287 284 282 265 254 248 246 248 242 235 242 238 232 231 237 230 236
64 56 321 338 8 224 256 5 251 263 236 222 246 236 230 268 291 298 296 294 300 303 305 306 307 306 304 298 296 290 288 287 283 281 276 269 263 254 255 251 239 236 244 240 235 231 241 251 234
177 172 165 219 229 278 25 237 253 217 261 248 250 251 266 284 299 293 294 302 305 307 309 310 309 309 306 302 298 292 290 285 280 275 269 270 265 262 253 268 258 241 239 246 241 230 238 253 238
110 217 129 103 57 35 246 281 289 256 307 293 269 282 290 296 299 297 301 303 304 307 310 309 310 311 310 306 301 299 294 286 280 271 266 259 259 257 246 264 271 237 237 238 238 229 227 243 248
222 160 54 10 46 301 282 279 242 307 284 307 298 304 303 301 297 296 301 303 306 310 311 311 312 313 312 309 305 305 298 289 276 266 253 242 254 263 263 267 247 240 228 227 232 245 224 247 241
181 267 63 113 112 169 288 273 214 214 216 249 274 310 305 303 304 302 306 307 311 314 314 316 318 315 313 310 309 308 298 292 280 265 242 237 248 257 262 250 247 236 226 214 223 246 247 235 241
239 201 157 122 266 91 145 272 209 224 237 253 286 312 310 306 304 302 309 312 315 315 316 321 325 327 327 324 324 316 309 301 283 273 252 230 241 243 263 266 246 247 229 217 211 233 241 231 221
Wind_Speed_850mb
12 19 18 11 7 9 7 9 2 2 3 5 8 5 14 12 6 8 21 10 6 8 7 10 15 18 17 12 11 14 14 15 15 12 14 14 15 17 21 32 37 38 35 36 34 37 37 37 37
15 22 15 5 8 4 10 7 8 5 6 16 18 11 9 6 11 20 19 9 11 10 11 13 15 19 20 19 15 11 18 17 17 17 15 18 18 18 21 29 37 42 42 41 39 41 41 39 38
18 24 9 8 6 10 10 8 9 5 7 6 8 10 7 12 17 20 17 13 12 14 16 20 21 23 23 23 22 20 16 24 20 20 22 21 23 21 23 28 36 41 45 45 42 44 45 43 42
14 10 8 8 11 11 7 5 7 7 4 7 12 11 10 11 18 20 19 15 17 21 24 27 31 32 33 30 27 25 24 22 25 25 21 26 27 28 28 32 37 39 44 47 49 47 47 45 44
15 6 6 2 10 7 3 6 7 4 1 5 4 8 10 15 20 20 17 17 21 24 28 34 36 37 37 36 32 29 29 28 29 28 28 29 33 36 35 38 39 43 45 48 50 52 49 50 47
7 5 6 7 9 3 3 4 7 7 3 2 5 15 9 20 23 18 17 16 21 26 30 36 41 45 48 49 50 46 38 36 32 33 31 31 34 35 40 43 45 46 50 50 50 51 53 52 47
12 8 7 6 7 3 9 8 5 10 7 8 11 11 8 26 24 23 22 23 26 31 36 42 50 57 60 59 55 50 47 45 42 38 37 34 33 37 41 47 52 52 52 56 54 53 54 53 49
8 7 7 9 9 9 8 7 5 9 11 10 13 11 10 30 28 26 26 27 30 39 48 52 52 55 57 53 54 49 46 46 45 45 42 39 43 44 51 53 55 59 58 59 63 60 58 57 54
8 7 5 8 12 5 9 8 10 6 9 13 16 14 13 15 27 29 29 32 35 39 45 53 55 48 42 38 39 46 46 43 46 47 48 47 43 44 47 55 58 64 64 63 63 69 68 64 61
7 7 16 5 5 7 9 7 8 5 14 15 25 26 26 25 27 33 35 37 41 45 44 44 44 45 42 40 36 37 44 47 43 46 50 50 51 45 46 51 52 58 66 71 69 68 70 67 66
7 10 6 6 7 8 5 6 10 7 12 32 36 40 33 34 37 39 42 44 43 41 42 43 43 44 45 41 41 40 39 45 49 45 47 52 52 54 49 49 55 53 62 64 71 72 70 75 76
4 12 8 5 10 7 6 6 10 33 24 15 18 22 30 37 39 38 37 39 38 41 42 41 42 46 52 55 51 47 43 42 45 52 50 49 56 55 55 53 52 53 48 57 63 70 78 77 82
6 4 8 10 12 16 13 21 19 37 39 34 31 31 33 33 35 36 37 38 37 40 44 46 45 48 53 59 62 61 54 48 45 47 52 54 53 57 57 56 54 54 54 53 46 68 72 79 82
4 10 18 18 26 17 11 8 5 10 8 32 41 40 38 37 36 36 38 35 37 41 47 49 50 52 56 61 64 66 62 58 53 47 48 55 57 57 58 58 57 55 52 59 49 56 71 79 83
4 11 12 15 13 10 8 14 21 40 23 24 35 35 33 32 34 36 33 35 38 45 50 53 54 55 58 61 64 68 67 59 59 55 49 54 58 59 59 60 60 52 49 60 57 53 59 73 82
3 3 8 2 11 3 5 16 8 10 24 34 36 38 40 38 37 38 37 39 43 46 51 56 57 59 62 63 65 65 64 65 60 58 56 52 57 60 61 63 62 55 48 49 55 52 61 68 89
4 7 8 12 9 5 9 14 13 11 23 38 43 48 50 43 43 45 44 46 49 48 52 56 60 64 67 67 64 62 60 61 63 60 59 55 55 59 61 64 64 57 53 47 50 40 54 58 89
10 8 8 10 2 3 12 32 39 42 38 53 59 55 52 47 48 48 48 48 49 52 57 60 62 63 67 65 59 59 58 57 59 61 60 55 53 55 59 63 65 60 56 52 55 44 41 37 66
2 6 10 4 4 4 18 24 42 36 34 37 50 53 56 51 45 47 47 47 49 53 58 62 65 65 60 54 52 53 54 54 56 57 59 51 47 49 56 61 64 63 57 52 48 51 58 58 40
6 7 10 7 5 4 13 31 44 17 11 10 21 35 42 46 46 48 45 46 51 56 58 62 64 59 51 48 44 47 51 54 55 53 52 47 34 34 51 55 60 62 57 52 43 44 61 63 70
7 8 5 9 11 3 15 16 11 6 7 10 12 14 23 31 37 39 41 45 51 53 57 60 55 52 51 48 49 47 47 49 51 53 51 47 39 37 48 47 51 58 58 57 48 43 50 70 68
5 4 6 1 8 6 9 11 14 7 13 9 14 11 19 29 32 31 37 48 52 51 48 51 52 51 50 46 46 46 48 50 46 51 50 45 32 37 40 36 42 50 59 58 60 47 62 45 73
9 3 5 6 6 8 2 4 16 9 12 8 12 24 28 27 27 33 43 49 44 44 49 51 52 51 46 44 44 47 49 48 48 47 44 33 34 36 38 42 37 41 54 58 59 59 51 46 34
10 6 7 8 5 3 4 6 12 7 10 6 2 19 28 25 28 38 42 38 43 46 48 50 50 45 41 41 43 44 46 47 45 42 40 32 40 40 32 42 43 35 50 54 57 49 43 38 38
9 6 6 8 5 9 3 1 19 12 10 9 9 17 19 23 34 38 35 38 43 45 45 45 44 43 40 41 42 41 43 43 43 40 37 36 35 41 30 32 37 33 41 50 56 60 51 42 36
7 8 8 12 5 8 1 12 11 12 8 10 13 18 25 31 33 32 34 38 40 43 42 41 41 42 39 39 39 38 38 40 37 36 35 30 29 32 46 34 36 32 51 46 44 64 72 57 46
3 5 4 12 3 5 4 14 17 7 9 9 21 21 31 31 31 31 33 34 37 39 36 37 38 38 37 37 37 33 33 33 31 31 27 22 25 34 39 41 41 39 47 46 47 48 61 58 63
4 3 4 5 1 7 9 11 10 9 7 9 11 26 29 28 25 29 30 33 33 33 33 32 34 35 36 33 31 28 26 25 22 20 18 21 25 30 32 36 44 33 35 36 32 35 36 60 57
4 3 4 5 6 8 4 13 14 14 12 12 17 33 30 27 25 27 27 27 29 30 29 29 30 29 27 27 24 22 19 15 14 14 15 18 18 20 21 23 23 16 26 30 33 40 38 45 62
3 8 6 8 8 1 6 14 5 9 9 8 37 40 25 23 24 26 25 25 25 26 25 25 25 24 25 24 20 17 13 10 10 9 11 13 14 13 20 17 14 18 19 20 29 42 39 38 40
Wind_Direction_850mb
175 165 155 144 69 63 266 260 257 123 94 75 60 114 123 60 66 163 99 139 213 266 315 346 357 357 2 350 327 294 314 266 233 224 244 255 245 242 218 206 212 217 219 218 216 213 211 209 208
170 160 155 125 99 112 258 248 210 184 125 116 97 96 39 80 102 145 163 169 212 260 294 320 339 345 339 335 327 307 282 297 277 243 239 242 246 242 229 214 213 220 221 224 220 220 214 211 209
160 167 160 107 126 194 218 211 167 115 121 150 110 85 107 120 139 151 168 208 249 274 298 315 324 326 326 323 316 310 289 277 279 269 248 245 242 240 236 225 217 220 221 223 221 222 215 212 204
155 153 77 103 218 250 218 189 165 137 116 92 129 80 101 156 160 176 186 214 254 283 302 314 322 326 323 313 302 298 296 284 280 268 269 249 247 234 232 231 226 222 220 218 222 219 217 214 209
157 126 72 144 248 264 264 175 134 127 250 91 130 174 151 161 171 185 202 228 261 278 296 307 314 318 319 316 311 298 289 289 281 277 266 258 249 243 233 229 230 225 221 220 222 220 219 215 213
105 92 76 221 244 247 251 185 167 163 204 159 106 140 201 195 188 200 222 247 270 287 298 305 311 312 310 308 303 298 294 285 280 279 280 261 254 255 237 233 230 232 227 224 222 221 219 215 216
121 97 211 217 235 228 217 175 188 175 175 235 155 146 218 201 204 220 242 262 279 293 300 303 305 307 306 304 299 296 290 279 277 273 274 277 262 253 250 239 232 232 232 229 224 222 222 221 219
125 93 176 243 202 237 173 172 183 173 230 172 183 210 230 219 211 226 246 261 275 288 295 297 297 295 295 291 291 291 287 280 272 269 268 266 266 260 253 249 241 236 234 231 228 225 227 226 230
135 72 222 246 168 193 172 169 192 227 221 204 213 225 243 203 220 234 253 269 280 284 287 292 298 298 294 289 284 285 287 284 275 268 266 265 260 260 257 253 249 238 235 236 233 229 226 231 234
110 143 217 215 178 183 176 199 195 212 215 228 231 231 230 228 234 250 262 275 285 291 295 295 296 298 299 299 294 284 281 282 281 272 266 262 262 262 259 256 252 247 241 233 236 234 230 228 230
164 206 221 232 194 166 194 255 230 210 242 227 225 227 217 235 248 256 268 279 288 296 302 303 301 302 305 307 306 298 285 276 276 277 271 264 261 259 263 258 258 255 250 243 234 238 233 231 228
210 238 241 239 201 177 201 232 258 226 238 256 226 237 234 235 243 257 270 280 290 299 305 306 305 306 310 311 309 307 299 288 275 271 273 269 261 258 257 262 259 257 252 249 242 235 239 237 234
218 265 246 225 219 241 241 230 238 263 263 255 252 244 237 241 249 258 269 279 293 304 310 309 309 309 310 310 309 307 304 295 284 273 268 270 265 258 256 255 260 261 257 254 249 242 239 240 240
308 288 274 272 253 240 208 254 175 267 239 248 250 249 242 240 248 254 263 276 290 299 304 305 307 311 311 309 306 303 300 296 290 279 269 266 267 263 256 253 253 256 255 254 249 254 243 244 240
306 314 308 235 228 218 195 273 229 247 255 247 243 243 239 248 256 259 262 274 286 295 301 303 305 310 311 310 305 300 298 295 290 286 273 266 266 264 259 254 249 250 253 252 249 255 254 245 247
340 86 331 94 146 191 158 264 260 252 227 241 239 239 241 245 254 253 261 272 280 287 295 299 300 303 307 306 304 299 294 293 292 286 280 268 265 263 261 256 250 245 247 253 245 257 253 256 246
357 247 214 313 188 132 193 268 260 248 226 242 249 253 250 241 244 250 260 268 276 285 293 296 298 302 305 305 300 295 291 290 290 285 280 276 265 263 262 257 251 246 246 250 242 252 256 255 237
202 222 239 244 338 241 259 260 273 266 264 260 267 259 246 243 244 246 254 266 278 287 293 296 296 299 302 299 295 291 290 290 286 285 281 278 269 260 262 257 252 247 244 247 248 250 228 230 237
110 217 243 242 358 299 252 271 275 281 262 261 264 262 250 246 244 244 254 267 278 285 290 296 303 307 304 298 297 291 290 287 284 285 286 282 269 263 261 256 251 246 244 241 249 251 248 234 219
213 253 263 277 154 248 307 289 279 279 248 253 281 263 251 246 237 241 254 270 282 289 296 299 304 306 303 297 292 290 292 290 289 286 285 282 257 271 262 258 251 248 243 233 241 240 234 234 227
219 206 226 238 313 172 321 289 321 287 262 263 282 267 237 235 229 241 261 280 290 296 300 302 302 301 300 297 293 292 289 287 289 289 283 281 253 263 264 257 252 249 243 233 234 239 224 220 210
257 112 109 275 39 266 34 282 300 315 293 235 235 219 211 220 234 256 283 295 300 299 300 301 301 300 299 296 293 293 294 292 288 287 285 282 255 264 263 261 251 254 243 236 234 241 234 220 207
216 109 109 99 93 32 17 67 271 6 296 273 234 225 231 236 257 282 298 302 297 298 302 303 303 303 301 297 293 293 292 289 287 284 285 271 249 265 250 250 243 245 246 239 233 240 238 238 229
137 83 66 56 85 352 250 134 272 219 215 293 252 226 233 245 274 294 298 294 295 299 301 302 302 302 301 297 293 291 290 290 287 284 282 265 254 248 246 248 242 235 242 238 232 231 237 230 236
64 56 321 338 8 224 256 5 251 263 236 222 246 236 230 268 291 298 296 294 300 303 305 306 307 306 304 298 296 290 288 287 283 281 276 269 263 254 255 251 239 236 244 240 235 231 241 251 234
177 172 165 219 229 278 25 237 253 217 261 248 250 251 266 284 299 293 294 302 305 307 309 310 309 309 306 302 298 292 290 285 280 275 269 270 265 262 253 268 258 241 239 246 241 230 238 253 238
110 217 129 103 57 35 246 281 289 256 307 293 269 282 290 296 299 297 301 303 304 307 310 309 310 311 310 306 301 299 294 286 280 271 266 259 259 257 246 264 271 237 237 238 238 229 227 243 248
222 160 54 10 46 301 282 279 242 307 284 307 298 304 303 301 297 296 301 303 306 310 311 311 312 313 312 309 305 305 298 289 276 266 253 242 254 263 263 267 247 240 228 227 232 245 224 247 241
181 267 63 113 112 169 288 273 214 214 216 249 274 310 305 303 304 302 306 307 311 314 314 316 318 315 313 310 309 308 298 292 280 265 242 237 248 257 262 250 247 236 226 214 223 246 247 235 241
239 201 157 122 266 91 145 272 209 224 237 253 286 312 310 306 304 302 309 312 315 315 316 321 325 327 327 324 324 316 309 301 283 273 252 230 241 243 263 266 246 247 229 217 211 233 241 231 221